Walhalla, ND

3:02 AM CDT on June 29, 2017 (GMT -0500)
Walhalla

Weather History for K96D - November, 2013

Change the Weather History Date:

Thursday, November 21, 2013

  Actual Average (KGAF) Record (KGAF)
Temperature  
Mean Temperature 6 °F -  
Max Temperature 12 °F 29 °F 51 °F (1960)
Min Temperature 1 °F 15 °F -14 °F (1978)
Degree Days  
Heating Degree Days 58    
Moisture  
Dew Point 1 °F    
Average Humidity 79    
Maximum Humidity 100    
Minimum Humidity 57    
Precipitation  
Precipitation 0.41 in - - ()
Sea Level Pressure  
Sea Level Pressure 30.49 in    
Wind  
Wind Speed 13 mph (WNW)    
Max Wind Speed 20 mph    
Max Gust Speed 26 mph    
Visibility 10 miles    
Events Snow    
Averages and records for this station are not official NWS values.
T = Trace of Precipitation, MM = Missing Value Source: NWS Daily Summary

Daily Weather History Graph

Daily Weather History Graph

Search for Another Location

Airport or City:

Trip Planner

Search our weather history database for the weather conditions in past years. The results will help you decide how hot, cold, wet, or windy it might be!

Date:

Astronomy

Nov. 21, 2013 Rise Set
Actual Time 7:50 AM CST 4:44 PM CST
Civil Twilight 7:15 AM CST 5:19 PM CST
Nautical Twilight 6:36 AM CST 5:58 PM CST
Astronomical Twilight 5:58 AM CST 6:36 PM CST
Moon 8:25 PM CST (11/21) 10:55 AM CST (11/21)
Length of Visible Light 10h 04m
Length of Day
8h 53m
Waning Gibbous, 85% of the Moon is Illuminated
Nov 21
Waning Gibbous
Nov 25
Last Quarter
Dec 2
New
Dec 9
First Quarter
Dec 17
Full

Hourly Weather History & Observations

Time (CST) Temp. Windchill Dew Point Humidity Pressure Visibility Wind Dir Wind Speed Gust Speed Precip Events Conditions
12:15 AM 12.2 °F -5.3 °F 10.4 °F 92% 30.29 in 3.0 mi NNW 18.4 mph 25.3 mph 0.07 in Snow Light Snow
12:35 AM 12.2 °F -5.8 °F 12.2 °F 100% 30.30 in 1.8 mi NNW 19.6 mph - 0.24 in Snow Light Snow
12:55 AM 12.2 °F -4.8 °F 12.2 °F 100% 30.31 in 1.8 mi NNW 17.3 mph 26.5 mph 0.40 in Snow Light Snow
1:15 AM 12.2 °F -5.3 °F 10.4 °F 92% 30.32 in 7.0 mi NNW 18.4 mph 24.2 mph N/A Snow Light Snow
1:35 AM 12.2 °F -4.8 °F 10.4 °F 92% 30.33 in 10.0 mi NNW 17.3 mph - 0.01 in Snow Light Snow
1:55 AM 12.2 °F -4.8 °F 10.4 °F 92% 30.33 in 10.0 mi NNW 17.3 mph 25.3 mph 0.01 in   Overcast
2:15 AM 12.2 °F -4.8 °F 10.4 °F 92% 30.34 in 10.0 mi NNW 17.3 mph 21.9 mph N/A   Overcast
2:35 AM 12.2 °F -5.8 °F 8.6 °F 85% 30.36 in 10.0 mi NNW 19.6 mph 24.2 mph N/A Snow Light Snow
2:55 AM 12.2 °F -4.3 °F 8.6 °F 85% 30.37 in 10.0 mi NNW 16.1 mph 25.3 mph N/A   Overcast
3:15 AM 10.4 °F -7.7 °F 8.6 °F 92% 30.38 in 10.0 mi NNW 18.4 mph 23.0 mph N/A   Overcast
3:35 AM 10.4 °F -6.6 °F 6.8 °F 85% 30.39 in 10.0 mi NNW 16.1 mph 25.3 mph N/A   Overcast
3:55 AM 8.6 °F -8.9 °F 6.8 °F 92% 30.40 in 10.0 mi NW 16.1 mph 20.7 mph N/A   Overcast
4:15 AM 8.6 °F -8.9 °F 5.0 °F 85% 30.40 in 10.0 mi NW 16.1 mph 20.7 mph N/A   Mostly Cloudy
4:35 AM 8.6 °F -7.7 °F 5.0 °F 85% 30.42 in 10.0 mi NW 13.8 mph - N/A   Partly Cloudy
4:55 AM 6.8 °F -9.3 °F 5.0 °F 92% 30.43 in 10.0 mi NW 12.7 mph - N/A   Partly Cloudy
5:15 AM 6.8 °F -10.0 °F 3.2 °F 85% 30.44 in 10.0 mi NW 13.8 mph - N/A   Scattered Clouds
5:35 AM 6.8 °F -8.6 °F 3.2 °F 85% 30.45 in 10.0 mi NNW 11.5 mph - N/A   Partly Cloudy
5:55 AM 6.8 °F -5.9 °F 1.4 °F 79% 30.47 in 10.0 mi NW 8.1 mph - N/A   Scattered Clouds
6:15 AM 6.8 °F -9.3 °F 1.4 °F 79% 30.47 in 10.0 mi NW 12.7 mph - N/A   Scattered Clouds
6:35 AM 5.0 °F -10.8 °F 1.4 °F 85% 30.48 in 10.0 mi NW 11.5 mph - N/A   Scattered Clouds
6:55 AM 3.2 °F -12.2 °F -0.4 °F 85% 30.49 in 10.0 mi NW 10.4 mph - N/A   Scattered Clouds
7:15 AM 1.4 °F -13.5 °F -0.4 °F 92% 30.50 in 10.0 mi NW 9.2 mph - N/A   Partly Cloudy
7:35 AM 1.4 °F -11.3 °F -0.4 °F 92% 30.50 in 10.0 mi NW 6.9 mph - N/A   Clear
7:55 AM 1.4 °F -12.5 °F -0.4 °F 92% 30.51 in 10.0 mi NW 8.1 mph - N/A   Clear
8:15 AM 1.4 °F -11.3 °F -0.4 °F 92% 30.53 in 10.0 mi WNW 6.9 mph - N/A   Clear
8:35 AM 1.4 °F -13.5 °F -0.4 °F 92% 30.53 in 10.0 mi WNW 9.2 mph - N/A   Clear
8:55 AM 1.4 °F -14.5 °F -0.4 °F 92% 30.55 in 10.0 mi NW 10.4 mph - N/A   Clear
9:15 AM 3.2 °F -13.9 °F -0.4 °F 85% 30.55 in 10.0 mi WNW 12.7 mph - N/A   Clear
9:35 AM 3.2 °F -13.9 °F -0.4 °F 85% 30.56 in 10.0 mi NW 12.7 mph 17.3 mph N/A   Clear
9:55 AM 5.0 °F -12.3 °F -0.4 °F 78% 30.57 in 10.0 mi NW 13.8 mph 18.4 mph N/A   Clear
10:15 AM 5.0 °F -13.0 °F -0.4 °F 78% 30.57 in 10.0 mi NW 15.0 mph 20.7 mph N/A   Clear
10:35 AM 5.0 °F -12.3 °F -0.4 °F 78% 30.58 in 10.0 mi WNW 13.8 mph - N/A   Clear
10:55 AM 5.0 °F -11.6 °F -0.4 °F 78% 30.58 in 10.0 mi NW 12.7 mph - N/A   Clear
11:15 AM 5.0 °F -10.0 °F -0.4 °F 78% 30.58 in 10.0 mi NW 10.4 mph - N/A   Clear
11:35 AM 5.0 °F -10.0 °F -0.4 °F 78% 30.58 in 10.0 mi NW 10.4 mph - N/A   Clear
11:55 AM 5.0 °F -9.1 °F -0.4 °F 78% 30.57 in 10.0 mi NW 9.2 mph - N/A   Clear
12:15 PM 5.0 °F -8.1 °F -0.4 °F 78% 30.57 in 10.0 mi NW 8.1 mph - N/A   Clear
12:35 PM 6.8 °F -4.8 °F -0.4 °F 72% 30.57 in 10.0 mi NW 6.9 mph - N/A   Clear
12:55 PM 6.8 °F -0.1 °F -0.4 °F 72% 30.57 in 10.0 mi NW 3.5 mph - N/A   Clear
1:15 PM 6.8 °F -0.1 °F -0.4 °F 72% 30.57 in 10.0 mi NNW 3.5 mph - N/A   Clear
1:35 PM 8.6 °F 0.1 °F -0.4 °F 67% 30.57 in 10.0 mi West 4.6 mph - N/A   Clear
1:55 PM 6.8 °F -5.9 °F -0.4 °F 72% 30.57 in 10.0 mi West 8.1 mph - N/A   Clear
2:15 PM 6.8 °F -5.9 °F -0.4 °F 72% 30.57 in 10.0 mi WSW 8.1 mph - N/A   Clear
2:35 PM 6.8 °F -6.9 °F -0.4 °F 72% 30.57 in - West 9.2 mph - N/A   Clear
2:55 PM 6.8 °F -5.9 °F -0.4 °F 72% 30.57 in 10.0 mi WSW 8.1 mph - N/A   Clear
3:15 PM 6.8 °F -6.9 °F -0.4 °F 72% 30.57 in 10.0 mi West 9.2 mph - N/A   Clear
3:35 PM 5.0 °F -5.6 °F -0.4 °F 78% 30.57 in 10.0 mi West 5.8 mph - N/A   Clear
3:55 PM 6.8 °F -4.8 °F -0.4 °F 72% 30.57 in 10.0 mi West 6.9 mph - N/A   Clear
4:15 PM 6.8 °F -3.5 °F -0.4 °F 72% 30.57 in 10.0 mi West 5.8 mph - N/A   Clear
4:35 PM 5.0 °F -2.1 °F -0.4 °F 78% 30.57 in - WSW 3.5 mph - N/A   Clear
4:55 PM 5.0 °F -4.1 °F -0.4 °F 78% 30.56 in - SW 4.6 mph - N/A   Clear
5:15 PM 5.0 °F -8.1 °F -2.2 °F 72% 30.55 in - SW 8.1 mph - N/A   Clear
5:35 PM 5.0 °F -5.6 °F -2.2 °F 72% 30.55 in - South 5.8 mph - N/A   Mostly Cloudy
5:55 PM 3.2 °F -9.1 °F -2.2 °F 78% 30.54 in - South 6.9 mph - N/A   Overcast
6:15 PM 1.4 °F -8.3 °F -4.0 °F 78% 30.53 in - South 4.6 mph - N/A   Unknown
6:35 PM 3.2 °F -10.3 °F -4.0 °F 72% 30.52 in - SW 8.1 mph - N/A   Overcast
6:55 PM 5.0 °F -4.1 °F -4.0 °F 66% 30.53 in - SSW 4.6 mph - N/A   Mostly Cloudy
7:35 PM 5.0 °F -10.0 °F -4.0 °F 66% 30.51 in - WSW 10.4 mph 16.1 mph N/A   Clear
8:35 PM 5.0 °F -10.0 °F -5.8 °F 61% 30.50 in - SW 10.4 mph - N/A   Clear
8:55 PM 5.0 °F -12.3 °F -4.0 °F 66% 30.48 in - SSW 13.8 mph - N/A   Clear
9:15 PM 5.0 °F -6.9 °F -4.0 °F 66% 30.47 in - SSE 6.9 mph - N/A   Clear
9:35 PM 6.8 °F -3.5 °F -4.0 °F 61% 30.45 in - SE 5.8 mph - N/A   Clear
9:55 PM 6.8 °F -5.9 °F -2.2 °F 67% 30.44 in - SE 8.1 mph - N/A   Clear
10:15 PM 6.8 °F -0.1 °F -2.2 °F 67% 30.44 in 10.0 mi South 3.5 mph - N/A   Clear
10:35 PM 6.8 °F -3.5 °F -0.4 °F 72% 30.43 in - SE 5.8 mph - N/A   Clear
10:55 PM 6.8 °F -6.9 °F -0.4 °F 72% 30.41 in 10.0 mi ESE 9.2 mph - N/A   Partly Cloudy
11:15 PM 8.6 °F -3.7 °F -0.4 °F 67% 30.41 in 10.0 mi ESE 8.1 mph - N/A   Mostly Cloudy
11:35 PM 10.4 °F 0.8 °F -0.4 °F 62% 30.40 in 10.0 mi South 5.8 mph - N/A   Mostly Cloudy
11:55 PM 12.2 °F - -0.4 °F 57% 30.40 in - Calm Calm - N/A   Mostly Cloudy